This demonstration page uses our WeatherBlox Daily Observations layout. Learn more.

Left ArrowRight Arrow

Hourly Observations for July 1, 2018

Temp ( °F °C ) Dew Point ( °F °C ) Humidity (%) Winds ( mph kmh ) Pressure ( in mb ) Visibility ( mi km ) Precip ( " mm )
12:17 am 00:17 Clear 77 25 77 25 100 100 N N/A 29.97 1015 10 16.0934 N/A
12:36 am 00:36 Partly Cloudy 75 24 75 24 100 100 N N/A 29.97 1015 10 16.0934 N/A
12:56 am 00:56 Partly Cloudy 75 24 75 24 100 100 N N/A 29.97 1015 10 16.0934 N/A
1:17 am 01:17 Clear 75 24 75 24 100 100 N N/A 30 1016 10 16.0934 N/A
1:36 am 01:36 Clear 73 23 73 23 100 100 N N/A 30 1016 10 16.0934 N/A
1:56 am 01:56 Clear 73 23 73 23 100 100 N N/A 30 1016 10 16.0934 N/A
2:17 am 02:17 Clear 75 24 75 24 100 100 S 5 7 29.97 1015 10 16.0934 N/A
2:36 am 02:36 Clear 75 24 75 24 100 100 S 5 7 29.97 1015 10 16.0934 N/A
2:56 am 02:56 Clear 75 24 75 24 100 100 S 3 6 29.97 1015 10 16.0934 N/A
3:17 am 03:17 Clear 75 24 75 24 100 100 S 3 6 29.97 1015 10 16.0934 N/A
3:36 am 03:36 Clear 73 23 73 23 100 100 SSE 5 7 29.97 1015 10 16.0934 N/A
3:56 am 03:56 Clear 73 23 73 23 100 100 SSE 3 6 29.97 1015 10 16.0934 N/A
4:17 am 04:17 Clear 73 23 73 23 100 100 SSE 5 7 29.97 1015 10 16.0934 N/A
4:36 am 04:36 Clear 73 23 73 23 100 100 SSE 6 9 29.97 1015 10 16.0934 N/A
4:57 am 04:57 Clear 73 23 73 23 100 100 SE 7 11 29.97 1015 10 16.0934 N/A
5:16 am 05:16 Clear 73 23 73 23 100 100 SSE 6 9 29.97 1015 10 16.0934 N/A
5:36 am 05:36 Clear 73 23 73 23 100 100 SSE 6 9 29.97 1015 10 16.0934 N/A
5:57 am 05:57 Clear 73 23 73 23 100 100 SSE 6 9 29.97 1015 10 16.0934 N/A
6:16 am 06:16 Clear 73 23 73 23 100 100 SSE 6 9 29.97 1015 10 16.0934 N/A
6:36 am 06:36 Sunny 73 23 73 23 100 100 SSE 5 7 29.97 1015 10 16.0934 N/A
6:57 am 06:57 Sunny 73 23 73 23 100 100 SSE 6 9 29.97 1015 10 16.0934 N/A
7:16 am 07:16 Partly Cloudy 73 23 73 23 100 100 SSE 3 6 29.97 1015 10 16.0934 N/A
7:37 am 07:37 Partly Cloudy 75 24 75 24 100 100 SSE 3 6 30 1016 10 16.0934 N/A
7:56 am 07:56 Mostly Cloudy 77 25 77 25 100 100 SSE 5 7 30 1016 10 16.0934 N/A
8:16 am 08:16 Mostly Cloudy 77 25 77 25 100 100 S 6 9 30 1016 10 16.0934 N/A
8:37 am 08:37 Partly Cloudy 79 26 77 25 94 94 SSW 6 9 30 1016 10 16.0934 N/A
8:56 am 08:56 Sunny 81 27 79 26 94 94 SW 8 13 30 1016 10 16.0934 N/A
9:16 am 09:16 Partly Cloudy 79 26 77 25 94 94 SSW 7 11 30 1016 7 11.26538 N/A
9:37 am 09:37 Partly Cloudy 79 26 79 26 100 100 SSW 5 7 30 1016 10 16.0934 N/A
9:56 am 09:56 Sunny 82 28 79 26 89 89 S 8 13 29.97 1015 10 16.0934 N/A
10:17 am 10:17 Sunny 82 28 79 26 89 89 S 6 9 29.97 1015 10 16.0934 N/A
10:36 am 10:36 Sunny 84 29 79 26 84 84 SSW 7 11 29.97 1015 10 16.0934 N/A
10:56 am 10:56 Sunny 84 29 81 27 89 89 SSW 12 19 30 1016 10 16.0934 N/A
11:17 am 11:17 Sunny 86 30 77 25 75 75 SW 12 19 30 1016 10 16.0934 N/A
11:36 am 11:36 Sunny 86 30 77 25 75 75 SSW 10 17 29.97 1015 10 16.0934 N/A
11:57 am 11:57 Sunny 86 30 77 25 75 75 S 12 19 30 1016 10 16.0934 N/A
12:16 pm 12:16 Sunny 88 31 77 25 70 70 SSW 12 19 29.97 1015 10 16.0934 N/A
12:36 pm 12:36 Sunny 88 31 77 25 70 70 SSW 9 15 29.94 1014 10 16.0934 N/A
12:57 pm 12:57 Sunny 88 31 77 25 70 70 SSW 14 22 29.94 1014 10 16.0934 N/A
1:17 pm 13:17 Partly Cloudy 90 32 79 26 71 71 S 12 19 29.94 1014 10 16.0934 N/A
1:36 pm 13:36 Partly Cloudy 88 31 77 25 70 70 SSW 13 20 29.94 1014 10 16.0934 N/A
1:57 pm 13:57 Sunny 90 32 77 25 67 67 SSW 12 19 29.91 1013 10 16.0934 N/A
2:16 pm 14:16 Sunny 90 32 77 25 67 67 SSW 8 13 29.91 1013 10 16.0934 N/A
2:36 pm 14:36 Partly Cloudy 90 32 79 26 71 71 SSW 10 17 29.91 1013 10 16.0934 N/A
2:57 pm 14:57 Sunny 90 32 77 25 67 67 SSW 13 20 29.91 1013 10 16.0934 N/A
3:16 pm 15:16 Partly Cloudy 90 32 79 26 71 71 SSW 10 17 29.91 1013 10 16.0934 N/A
3:36 pm 15:36 Sunny 90 32 77 25 67 67 SSW 10 17 29.91 1013 10 16.0934 N/A
3:57 pm 15:57 Sunny 90 32 79 26 71 71 SW 9 15 29.88 1012 10 16.0934 N/A
4:16 pm 16:16 Sunny 91 33 79 26 67 67 S 10 17 29.88 1012 10 16.0934 N/A
4:36 pm 16:36 Partly Cloudy 90 32 79 26 71 71 SSW 12 19 29.88 1012 10 16.0934 N/A
4:57 pm 16:57 Partly Cloudy 90 32 79 26 71 71 S 12 19 29.88 1012 10 16.0934 N/A
5:16 pm 17:16 Sunny 90 32 79 26 71 71 S 13 20 29.88 1012 10 16.0934 N/A
5:36 pm 17:36 Sunny 90 32 79 26 71 71 S 13 20 29.88 1012 10 16.0934 N/A
5:57 pm 17:57 Sunny 90 32 77 25 67 67 S 12 19 29.85 1011 10 16.0934 N/A
6:16 pm 18:16 Sunny 90 32 77 25 67 67 S 13 20 29.88 1012 10 16.0934 N/A
6:37 pm 18:37 Sunny 90 32 77 25 67 67 SSW 10 17 29.88 1012 10 16.0934 N/A
6:56 pm 18:56 Sunny 88 31 77 25 70 70 S 13 20 29.85 1011 10 16.0934 N/A
7:16 pm 19:16 Sunny 88 31 77 25 70 70 SSW 13 20 29.88 1012 10 16.0934 N/A
7:36 pm 19:36 Sunny 88 31 77 25 70 70 SSW 6 9 29.88 1012 10 16.0934 N/A
7:56 pm 19:56 Sunny 88 31 77 25 70 70 SSW 8 13 29.88 1012 10 16.0934 N/A
8:17 pm 20:17 Sunny 86 30 77 25 75 75 S 7 11 29.88 1012 10 16.0934 N/A
8:36 pm 20:36 Sunny 84 29 77 25 79 79 S 6 9 29.91 1013 10 16.0934 N/A
8:56 pm 20:56 Sunny 82 28 77 25 84 84 S 6 9 29.91 1013 10 16.0934 N/A
9:17 pm 21:17 Clear 82 28 77 25 84 84 SSE 6 9 29.94 1014 10 16.0934 N/A
9:36 pm 21:36 Clear 81 27 79 26 94 94 S 6 9 29.94 1014 10 16.0934 N/A
9:57 pm 21:57 Clear 81 27 79 26 94 94 S 5 7 29.94 1014 10 16.0934 N/A
10:17 pm 22:17 Clear 79 26 79 26 100 100 SSE 6 9 29.94 1014 10 16.0934 N/A
10:36 pm 22:36 Clear 79 26 77 25 94 94 SSE 5 7 29.94 1014 10 16.0934 N/A
10:57 pm 22:57 Clear 79 26 77 25 94 94 SSE 6 9 29.94 1014 10 16.0934 N/A
11:17 pm 23:17 Clear 79 26 77 25 94 94 SSE 7 11 29.94 1014 10 16.0934 N/A
11:36 pm 23:36 Clear 77 25 77 25 100 100 SSE 6 9 29.97 1015 10 16.0934 N/A
11:57 pm 23:57 Partly Cloudy 79 26 79 26 100 100 S 7 11 29.97 1015 10 16.0934 N/A

Powered by AerisWeather